�N����,����,�~����,�C��,���x,�C��,����,���ϕ���,�ő�u�ԕ���,�ő厞����,���˗�,�I�_���x,�n�����x,�ő啗���N��,DTYPE
"22/06/12","00:10",0.0,18.1,94.9,1004.8,306.0,1.2,2.2,324.2,0.00,17.3,19.9,"00:07:20",1
"22/06/12","00:20",0.0,18.0,94.9,1004.1,323.2,1.6,2.9,323.7,0.00,17.2,19.7,"00:19:12",1
"22/06/12","00:30",0.0,17.9,94.9,1004.3,331.7,2.3,3.7,331.4,0.00,17.1,19.9,"00:29:04",1
"22/06/12","00:40",0.0,18.0,94.9,1004.1,331.2,2.2,2.9,300.1,0.00,17.2,20.0,"00:39:52",1
"22/06/12","00:50",0.0,18.0,94.9,1004.1,308.2,2.3,3.4,310.3,0.00,17.2,19.9,"00:45:20",1
"22/06/12","01:00",0.0,17.9,94.9,1003.8,310.8,2.5,3.7,322.3,0.00,17.1,19.8,"00:52:48",1
"22/06/12","01:10",0.0,17.9,94.8,1003.8,302.9,2.3,3.6,316.4,0.00,17.1,19.9,"01:05:12",1
"22/06/12","01:20",0.0,18.0,94.8,1004.1,297.4,1.8,3.1,313.4,0.00,17.2,19.8,"01:16:24",1
"22/06/12","01:30",0.0,17.9,94.8,1003.8,305.7,2.0,3.3,320.1,0.00,17.1,19.8,"01:25:52",1
"22/06/12","01:40",0.0,18.0,94.7,1003.8,313.5,1.8,2.9,337.7,0.00,17.2,19.8,"01:36:08",1
"22/06/12","01:50",0.0,18.1,94.6,1003.8,335.3,1.8,3.3,342.4,0.00,17.3,19.7,"01:49:04",1
"22/06/12","02:00",0.0,18.1,94.6,1003.6,342.9,2.1,3.5,337.3,0.00,17.3,19.8,"01:55:44",1
"22/06/12","02:10",0.0,18.1,94.5,1003.6,342.9,1.7,3.2,339.0,0.00,17.2,19.6,"02:02:48",1
"22/06/12","02:20",0.0,18.2,94.4,1003.4,317.1,2.0,4.7,332.3,0.00,17.3,19.8,"02:17:12",1
"22/06/12","02:30",0.0,18.2,94.3,1004.1,332.1,1.6,4.1,318.2,0.00,17.3,19.7,"02:21:44",1
"22/06/12","02:40",0.0,18.0,94.2,1003.6,342.3,1.2,2.2,345.7,0.00,17.1,19.8,"02:30:02",1
"22/06/12","02:50",0.0,18.2,94.2,1003.1,331.2,2.6,4.2,332.2,0.00,17.3,19.7,"02:48:08",1
"22/06/12","03:00",0.0,18.2,94.1,1003.1,328.2,2.6,4.7,337.7,0.00,17.3,19.9,"02:54:24",1
"22/06/12","03:10",0.0,18.1,94.0,1003.4,311.7,2.1,3.4,313.1,0.00,17.2,19.8,"03:08:08",1
"22/06/12","03:20",0.0,18.1,93.9,1003.1,328.1,1.1,2.6,326.5,0.00,17.1,19.7,"03:12:32",1
"22/06/12","03:30",0.0,18.0,93.9,1002.9,308.2,0.6,1.6,334.0,0.00,17.0,19.7,"03:24:00",1
"22/06/12","03:40",0.0,17.7,93.9,1003.1,301.2,0.3,1.1,313.6,0.00,16.7,20.0,"03:38:16",1
"22/06/12","03:50",0.0,17.6,93.9,1003.4,313.2,0.8,1.7,329.5,0.00,16.6,19.6,"03:46:08",1
"22/06/12","04:00",0.0,17.8,93.9,1003.1,318.7,1.1,2.0,348.6,0.00,16.8,19.6,"03:55:36",1
"22/06/12","04:10",0.0,17.6,93.9,1003.4,311.1,0.8,1.8,322.7,0.00,16.6,19.5,"04:04:00",1
"22/06/12","04:20",0.0,17.6,94.0,1003.1,301.0,1.0,2.5,330.1,0.00,16.7,19.7,"04:19:36",1
"22/06/12","04:30",0.0,17.7,94.1,1003.6,318.9,1.2,2.6,341.7,0.00,16.8,19.7,"04:27:52",1
"22/06/12","04:40",0.0,17.8,94.1,1003.1,331.8,1.3,2.2,324.1,0.00,16.9,19.6,"04:31:52",1
"22/06/12","04:50",0.0,17.8,94.3,1003.4,319.6,1.0,2.0,349.5,0.00,16.9,19.6,"04:49:28",1
"22/06/12","05:00",0.0,17.8,94.2,1003.6,313.1,0.8,1.6,319.1,0.00,16.9,19.5,"04:53:44",1
"22/06/12","05:10",0.0,17.9,94.3,1003.6,292.2,0.6,1.2,320.5,0.00,17.0,19.5,"05:04:40",1
"22/06/12","05:20",0.0,18.0,94.5,1003.6,291.0,0.8,1.6,294.1,0.00,17.1,19.7,"05:10:40",1
"22/06/12","05:30",0.0,18.0,94.3,1003.6,280.7,0.6,1.2,291.8,0.00,17.1,19.4,"05:24:56",1
"22/06/12","05:40",0.0,18.2,94.4,1003.8,286.8,1.3,2.7,332.2,0.00,17.3,19.5,"05:37:04",1
"22/06/12","05:50",0.0,18.1,94.4,1004.1,321.9,1.1,2.6,342.8,0.00,17.2,19.5,"05:41:28",1
"22/06/12","06:00",0.0,18.2,94.4,1004.1,343.6,1.7,3.4,0.2,0.00,17.3,19.4,"05:50:16",1
"22/06/12","06:10",0.0,18.0,94.4,1004.1,340.8,2.0,3.7,342.5,0.01,17.1,19.5,"06:03:36",1
"22/06/12","06:20",0.0,18.2,94.2,1004.1,341.7,1.8,3.3,341.0,0.02,17.3,19.4,"06:14:32",1
"22/06/12","06:30",0.0,18.5,93.2,1004.3,327.0,2.3,4.4,332.7,0.03,17.4,19.5,"06:21:52",1
"22/06/12","06:40",0.0,19.3,92.6,1004.3,333.2,1.2,2.8,353.1,0.05,18.1,19.4,"06:31:12",1
"22/06/12","06:50",0.0,20.1,91.5,1004.5,320.9,1.1,2.4,349.0,0.07,18.7,19.6,"06:46:32",1
"22/06/12","07:00",0.0,20.0,89.3,1004.8,330.1,1.6,4.5,350.4,0.08,18.2,19.6,"06:58:32",1
"22/06/12","07:10",0.0,20.6,85.2,1004.5,357.8,1.8,4.5,331.0,0.11,18.1,19.4,"07:07:28",1
"22/06/12","07:20",0.0,21.0,80.0,1005.0,352.2,2.0,4.4,322.9,0.13,17.5,19.6,"07:18:56",1
"22/06/12","07:30",0.0,21.0,76.4,1004.8,350.8,2.6,5.6,21.8,0.14,16.7,19.3,"07:22:48",1
"22/06/12","07:40",0.0,21.0,74.6,1004.8,347.8,2.6,5.1,316.6,0.16,16.4,19.4,"07:31:52",1
"22/06/12","07:50",0.0,21.3,73.6,1004.8,348.8,2.7,6.4,347.8,0.18,16.4,19.5,"07:41:44",1
"22/06/12","08:00",0.0,21.8,72.0,1004.8,355.4,2.2,5.2,21.1,0.21,16.6,19.6,"07:59:28",1
"22/06/12","08:10",0.0,21.9,70.8,1004.8,339.9,3.0,7.0,327.2,0.24,16.4,19.2,"08:08:48",1
"22/06/12","08:20",0.0,22.1,69.9,1005.0,344.6,2.8,5.9,337.7,0.28,16.4,19.5,"08:16:32",1
"22/06/12","08:30",0.0,22.4,69.2,1004.8,357.4,3.6,7.1,339.3,0.30,16.5,19.3,"08:24:56",1
"22/06/12","08:40",0.0,22.7,68.3,1004.5,328.4,2.3,5.8,353.1,0.32,16.6,19.5,"08:36:08",1
"22/06/12","08:50",0.0,22.1,68.2,1004.8,337.5,3.9,6.4,323.4,0.24,16.0,19.3,"08:45:44",1
"22/06/12","09:00",0.0,22.0,69.4,1004.8,335.6,3.0,10.1,344.6,0.19,16.2,19.4,"08:54:00",1
"22/06/12","09:10",0.0,22.3,68.1,1004.8,339.7,3.1,7.3,315.8,0.26,16.2,19.5,"09:06:08",1
"22/06/12","09:20",0.0,22.7,67.3,1004.8,347.4,3.7,7.7,350.9,0.38,16.4,19.4,"09:10:32",1
"22/06/12","09:30",0.0,23.3,66.8,1004.5,346.4,2.3,5.2,311.6,0.34,16.8,19.4,"09:22:56",1
"22/06/12","09:40",0.0,23.3,65.5,1004.5,346.8,2.6,5.9,341.4,0.33,16.5,19.6,"09:34:48",1
"22/06/12","09:50",0.0,23.2,67.0,1005.0,342.7,2.8,5.9,345.1,0.42,16.8,19.3,"09:46:08",1
"22/06/12","10:00",0.0,22.9,65.1,1004.8,355.4,3.9,7.7,358.1,0.44,16.0,19.4,"09:55:36",1
"22/06/12","10:10",0.0,22.4,63.6,1004.5,340.9,4.9,8.7,344.8,0.42,15.2,19.7,"10:03:28",1
"22/06/12","10:20",0.0,22.9,63.2,1004.3,339.7,4.5,9.5,327.6,0.50,15.6,19.5,"10:17:28",1
"22/06/12","10:30",0.0,22.9,62.2,1004.8,341.6,4.6,9.0,329.8,0.54,15.3,19.5,"10:28:00",1
"22/06/12","10:40",0.0,23.3,61.8,1004.5,344.2,3.5,7.7,317.6,0.54,15.6,19.6,"10:37:44",1
"22/06/12","10:50",0.0,23.5,61.3,1005.0,345.0,3.5,6.6,359.9,0.54,15.7,19.6,"10:40:02",1
"22/06/12","11:00",0.0,23.6,62.0,1005.0,342.8,3.7,7.3,347.6,0.56,15.9,19.7,"10:52:40",1
"22/06/12","11:10",0.0,23.4,61.0,1005.2,345.9,3.7,7.7,344.9,0.58,15.5,19.9,"11:07:12",1
"22/06/12","11:20",0.0,23.6,60.9,1005.0,333.1,4.0,7.2,359.3,0.58,15.7,19.7,"11:18:48",1
"22/06/12","11:30",0.0,23.7,59.3,1005.5,348.6,4.0,7.9,16.1,0.60,15.3,19.9,"11:24:32",1
"22/06/12","11:40",0.0,23.9,58.0,1005.0,359.4,3.6,6.6,353.5,0.61,15.2,20.0,"11:35:52",1
"22/06/12","11:50",0.0,23.7,57.5,1004.8,340.7,3.7,7.3,350.2,0.62,14.9,19.9,"11:48:08",1
"22/06/12","12:00",0.0,23.4,57.1,1005.2,349.0,4.1,7.7,324.6,0.62,14.5,19.8,"11:56:32",1
"22/06/12","12:10",0.0,23.9,56.4,1005.0,320.0,4.1,9.7,355.2,0.62,14.7,20.1,"12:01:12",1
"22/06/12","12:20",0.0,23.3,55.1,1005.0,329.1,5.1,9.7,317.7,0.62,13.8,20.1,"12:15:14",1
"22/06/12","12:30",0.0,23.6,56.4,1005.0,346.7,4.5,10.6,336.2,0.62,14.5,20.1,"12:22:42",1
"22/06/12","12:40",0.0,23.4,55.1,1004.8,339.5,5.2,9.4,314.8,0.62,13.9,20.2,"12:39:12",1
"22/06/12","12:50",0.0,23.9,56.4,1005.0,339.5,4.0,8.6,339.9,0.62,14.7,20.1,"12:40:08",1
"22/06/12","13:00",0.0,24.0,55.9,1005.0,350.0,4.0,7.9,349.7,0.61,14.7,20.2,"12:52:08",1
"22/06/12","13:10",0.0,23.9,54.9,1004.5,351.8,3.5,6.5,316.4,0.61,14.3,20.1,"13:07:44",1
"22/06/12","13:20",0.0,24.2,54.2,1004.8,0.8,3.5,8.3,348.2,0.61,14.4,20.2,"13:10:16",1
"22/06/12","13:30",0.0,24.6,53.9,1004.8,354.4,2.3,6.3,341.0,0.60,14.7,20.2,"13:22:32",1
"22/06/12","13:40",0.0,24.3,52.8,1004.5,354.8,3.2,7.7,351.0,0.60,14.1,20.5,"13:35:28",1
"22/06/12","13:50",0.0,24.2,52.4,1004.5,357.5,3.5,7.1,350.5,0.59,13.9,20.1,"13:49:36",1
"22/06/12","14:00",0.0,24.2,52.7,1004.5,8.1,3.4,6.8,351.1,0.58,14.0,20.3,"13:55:20",1
"22/06/12","14:10",0.0,24.4,51.7,1004.5,5.3,3.2,7.0,24.8,0.57,13.9,20.6,"14:06:48",1
"22/06/12","14:20",0.0,24.3,53.4,1004.1,356.8,3.4,7.5,30.0,0.56,14.3,20.4,"14:11:52",1
"22/06/12","14:30",0.0,24.3,50.8,1004.3,4.0,2.8,6.5,42.3,0.54,13.5,20.5,"14:26:16",1
"22/06/12","14:40",0.0,24.4,50.5,1004.1,12.5,2.7,6.8,17.3,0.53,13.5,20.5,"14:32:32",1
"22/06/12","14:50",0.0,24.7,51.8,1003.8,2.6,2.7,5.2,13.4,0.51,14.2,20.4,"14:44:56",1
"22/06/12","15:00",0.0,24.4,52.5,1003.8,351.1,3.6,6.3,349.4,0.50,14.1,20.4,"14:51:36",1
"22/06/12","15:10",0.0,24.4,51.3,1004.1,348.5,3.6,6.6,340.7,0.48,13.7,20.6,"15:05:28",1
"22/06/12","15:20",0.0,24.2,52.2,1004.1,345.3,3.7,7.1,301.4,0.47,13.8,20.6,"15:13:04",1
"22/06/12","15:30",0.0,24.3,51.2,1003.8,348.1,3.5,7.1,341.6,0.45,13.6,20.6,"15:20:56",1
"22/06/12","15:40",0.0,24.3,51.9,1003.8,357.6,3.5,6.6,339.3,0.43,13.8,20.7,"15:31:04",1
"22/06/12","15:50",0.0,24.0,50.3,1004.1,355.8,3.6,7.1,348.6,0.41,13.1,20.7,"15:45:44",1
"22/06/12","16:00",0.0,24.2,50.7,1004.3,5.0,2.8,5.6,17.4,0.39,13.4,20.8,"15:54:56",1
"22/06/12","16:10",0.0,24.1,50.9,1004.1,356.6,3.1,5.6,348.5,0.37,13.4,20.7,"16:08:32",1
"22/06/12","16:20",0.0,23.9,51.2,1003.8,344.9,3.6,5.8,7.1,0.35,13.3,20.8,"16:15:52",1
"22/06/12","16:30",0.0,24.1,51.3,1003.8,339.9,3.0,6.0,8.3,0.32,13.5,20.8,"16:21:28",1
"22/06/12","16:40",0.0,23.9,51.3,1004.1,344.3,3.5,6.8,331.6,0.30,13.3,20.8,"16:36:08",1
"22/06/12","16:50",0.0,23.6,53.2,1003.6,339.5,3.9,6.6,335.8,0.27,13.6,20.9,"16:42:00",1
"22/06/12","17:00",0.0,23.9,53.3,1003.8,346.0,3.1,6.5,343.8,0.25,13.9,20.9,"16:57:52",1
"22/06/12","17:10",0.0,23.6,52.5,1004.1,353.3,3.0,5.6,341.1,0.22,13.4,20.9,"17:05:44",1
"22/06/12","17:20",0.0,23.5,53.2,1003.8,332.4,3.1,8.2,343.7,0.05,13.5,20.9,"17:18:32",1
"22/06/12","17:30",0.0,22.8,55.6,1004.3,339.8,4.5,10.3,341.3,0.01,13.5,21.1,"17:28:08",1
"22/06/12","17:40",0.0,22.4,57.2,1004.3,343.2,4.4,8.2,340.1,0.01,13.6,21.0,"17:37:12",1
"22/06/12","17:50",0.0,22.1,58.6,1004.3,340.8,4.6,7.8,346.5,0.01,13.7,21.1,"17:44:00",1
"22/06/12","18:00",0.0,21.7,58.4,1004.5,337.8,5.6,9.1,330.7,0.01,13.2,21.1,"17:51:52",1
"22/06/12","18:10",0.0,21.4,59.2,1004.8,337.6,5.0,9.6,320.8,0.01,13.2,21.0,"18:00:16",1
"22/06/12","18:20",0.0,21.3,60.3,1005.2,341.1,3.6,8.0,348.1,0.01,13.3,20.9,"18:17:20",1
"22/06/12","18:30",0.0,21.0,61.0,1005.0,341.2,4.0,6.6,332.0,0.02,13.2,21.0,"18:27:20",1
"22/06/12","18:40",0.0,20.9,62.1,1005.5,342.5,3.0,5.4,336.6,0.02,13.4,21.1,"18:32:32",1
"22/06/12","18:50",0.0,20.6,62.9,1005.5,346.8,3.0,4.5,356.7,0.02,13.3,21.1,"18:44:08",1
"22/06/12","19:00",0.0,20.4,62.8,1005.5,327.2,3.9,7.0,338.9,0.01,13.1,21.0,"18:56:00",1
"22/06/12","19:10",0.0,20.1,63.6,1006.2,337.9,3.1,5.9,338.0,0.00,13.0,20.8,"19:00:32",1
"22/06/12","19:20",0.0,19.7,64.9,1006.2,269.8,1.2,2.4,242.9,0.00,13.0,20.8,"19:16:00",1
"22/06/12","19:30",0.0,19.3,66.2,1006.7,300.5,1.7,3.4,321.0,0.00,12.9,20.9,"19:29:28",1
"22/06/12","19:40",0.0,19.1,67.3,1006.7,325.0,2.5,5.0,326.5,0.00,12.9,20.7,"19:34:00",1
"22/06/12","19:50",0.0,18.8,68.4,1006.7,337.3,1.5,3.3,3.4,0.00,12.9,21.0,"19:41:20",1
"22/06/12","20:00",0.0,18.5,69.6,1006.7,337.5,2.0,2.9,332.2,0.00,12.9,20.7,"19:50:16",1
"22/06/12","20:10",0.0,18.4,70.1,1006.9,325.8,2.8,5.7,326.3,0.00,12.9,20.8,"20:08:04",1
"22/06/12","20:20",0.0,18.3,70.3,1006.9,316.8,2.8,5.4,336.6,0.00,12.8,20.7,"20:16:40",1
"22/06/12","20:30",0.0,18.2,70.7,1007.4,317.8,2.1,3.9,315.5,0.00,12.8,20.7,"20:27:04",1
"22/06/12","20:40",0.0,18.0,71.2,1007.6,319.4,1.2,2.1,337.5,0.00,12.8,20.6,"20:39:44",1
"22/06/12","20:50",0.0,18.0,72.0,1006.9,328.8,2.5,4.5,320.2,0.00,12.9,20.7,"20:42:00",1
"22/06/12","21:00",0.0,17.9,72.6,1007.6,321.8,2.5,4.5,333.1,0.00,13.0,20.6,"20:56:48",1
"22/06/12","21:10",0.0,17.7,73.3,1007.6,325.3,2.2,3.5,311.9,0.00,12.9,20.6,"21:04:16",1
"22/06/12","21:20",0.0,17.7,73.8,1007.6,315.1,2.5,4.9,337.2,0.00,13.0,20.5,"21:18:08",1
"22/06/12","21:30",0.0,17.6,74.0,1008.1,314.3,2.5,3.6,331.6,0.00,13.0,20.5,"21:25:12",1
"22/06/12","21:40",0.0,17.6,74.2,1008.1,308.9,1.8,3.4,328.7,0.00,13.0,20.4,"21:36:08",1
"22/06/12","21:50",0.0,17.4,74.7,1008.6,308.8,1.6,3.2,347.8,0.00,12.9,20.5,"21:48:08",1
"22/06/12","22:00",0.0,17.3,75.1,1008.1,318.3,2.0,3.6,341.6,0.00,12.9,20.5,"21:50:48",1
"22/06/12","22:10",0.0,17.3,75.4,1008.1,335.2,2.2,3.2,341.5,0.00,13.0,20.4,"22:06:48",1
"22/06/12","22:20",0.0,17.0,76.8,1008.6,342.4,1.8,3.1,339.5,0.00,12.9,20.5,"22:13:52",1
"22/06/12","22:30",0.0,16.8,77.7,1008.6,326.0,2.3,3.5,340.0,0.00,12.9,20.3,"22:28:56",1
"22/06/12","22:40",0.0,16.8,77.7,1008.1,330.6,1.5,2.2,350.3,0.00,12.9,20.4,"22:30:16",1
"22/06/12","22:50",0.0,16.5,78.2,1008.1,281.5,0.8,2.7,327.8,0.00,12.7,20.1,"22:49:20",1
"22/06/12","23:00",0.0,16.5,78.8,1008.1,296.1,1.2,2.2,331.4,0.00,12.9,20.3,"22:57:20",1
"22/06/12","23:10",0.0,16.7,78.8,1008.1,326.5,1.8,3.5,348.1,0.00,13.0,20.2,"23:09:52",1
"22/06/12","23:20",0.0,16.8,78.3,1008.1,310.1,1.7,3.2,317.8,0.00,13.0,20.1,"23:10:16",1
"22/06/12","23:30",0.0,16.9,78.1,1007.8,344.9,0.8,1.6,328.1,0.00,13.1,20.1,"23:20:56",1
"22/06/12","23:40",0.0,17.0,77.9,1007.8,325.0,1.5,3.3,356.6,0.00,13.2,20.0,"23:30:32",1
"22/06/12","23:50",0.0,17.1,77.8,1008.6,337.1,1.2,2.1,6.4,0.00,13.2,20.1,"23:41:28",1
"22/06/12","24:00",0.0,16.9,78.0,1008.3,298.3,1.1,1.8,325.2,0.00,13.1,20.1,"23:52:00",1
